{"data":{"norad_id":59320,"epoch":"2026-09-21T07:07:27.491808Z","epoch_age_seconds":93352,"freshness":"FRESH","line1":"1 59320U 24057A   26264.29684597  .00024884  00000+0  58515-3 0  9999","line2":"2 59320  42.9920 107.1683 0014837 256.5509 103.3694 15.41398094140373","mean_motion":15.41398094,"eccentricity":0.0014837,"inclination_deg":42.992,"raan_deg":107.1683,"arg_perigee_deg":256.5509,"mean_anomaly_deg":103.3694,"bstar":0.00058515,"rev_number":14037,"period_min":93.421680330688,"perigee_km":431.86315327604,"apogee_km":452.10117488353,"semimajor_km":6820.1191640798,"source":"CELESTRAK","updated_at":"2026-09-22T09:00:48.897690Z"}}